Zurück zum Katalog

EQUATOR S

AktivWissenschaftHEO
NORAD 25068·PAYLOAD·🇩🇪 Germany

Gestartet Dec 2, 1997 von Guiana Space Centre

Loading…

Nächste Überflüge (nächste 24 Stunden)

TLE

AktuellSource: Space-Track

Epoche: Sep 14, 2026, 06:07 UTC

1 25068U 97075B   26257.25490945 -.00000037  00000-0  81993-3 0  9993
2 25068   2.7218 233.5698 8288562  22.3717 358.6596  1.07780407113427

Verfolge EQUATOR S in Echtzeit mit AllMySat

Download on the App Store